Other Surface Observations
Issued by NWS Charleston, SC

Current Version | Previous Version | Text Only | Print | Product List | Glossary On
Versions: 1 2 3 4 5 6 7 8 9 10 11 12 13 14 15 16 17 18 19 20 21 22 23 24 25 26 27 28 29 30 31 32 33 34 35 36 37 38 39 40 41 42 43 44 45 46 47 48 49 50
000
SXUS52 KCHS 222227
OSOCHS

MARINE OBSERVATIONS
NATIONAL WEATHER SERVICE CHARLESTON SC
500 PM EST WED NOV 22 2017

...DOWNTOWN CHARLESTON AND HARBOR...

CITY           SKY/WX    TMP DP  RH WIND       PRES   REMARKS
WATERFRONT PRK NOT AVBL

...LAKE MOULTRIE...

CITY           SKY/WX    TMP DP  RH WIND       PRES   REMARKS
PINOPOLIS        N/A     66  57  72 CALM      29.90R

...LAKE AND SUPPLEMENTAL COASTAL OBSERVATIONS...

STATION/POSITION TIME  TEMP    WIND        PRES    WAVE   SWELL
                       AIR SEA DIR/SP/G            HT/PER HT/PER/DIR
                 (UTC) (F)     (DEG/KT/KT) (MB)    (FT/S) (FT/S/D)
FORT PULASKI     2200   64 62  290/  9/ 10 1016.5
SAPELO ISLAND    2200   64     110/  1     1016.0
WINYAH BAY       2145   66     350/  3     1015.0S
LAKE MURRAY      2220   61      CALM  /  1 1015.9R
ACE BASIN NERRS  2145   66        CALM     1015.0S


...C-MAN AND BUOY OBSERVATIONS...

STATION/POSITION TIME  TEMP    WIND        PRES    WAVE   SWELL
                       AIR SEA DIR/SP/G            HT/PER HT/PER/DIR
                 (UTC) (F)     (DEG/KT/KT) (MB)    (FT/S) (FT/S/D)
BUOY 41004       2210   67 75   20/ 10/ 14 1015.0
BUOY 41008       2150   64 68   10/  2/  4 1016.0R   3/ 8   3/100/ 8
FOLLY BEACH CMAN 2200   64     330/  3/  4 1016.4R
CAPERS NS BUOY   2208   62 62  250/  2/  2 1015.5R
FRIPP NS BUOY    2208   60 62  190/  4/  6 1015.5R
5E ST. MARYS GA  2130      67                N/A     3/ 8


STATION/POSITION TIME  TEMP    WIND        PRES    WAVE   SWELL
                       AIR SEA DIR/SP/G            HT/PER HT/PER/DIR
                 (UTC) (F)     (DEG/KT/KT) (MB)    (FT/S) (FT/S/D)
FRYING PAN BUOY  2210   66 73   40/  4/  8 1015.2
BUOY 41025       2210   62 74   10/ 23/ 31 1014.9
CAPE LOOKOUT NC  2200           10/  8/  9 1015.2R
BUOY 41002       2150   73 76  350/ 14/ 17 1012.7R   6/ 9   5/130/ 9
BUOY 41010       NOT AVBL
ST AUGUSTINE FL  2200   67 70   30/ 13/ 14 1015.6R

$$




USA.gov is the U.S. government's official web portal to all federal, state and local government web resources and services.